WetterOnline ( http://www.wetteronline.de )

Wetter aktuell Frankfurt am Main

Aktuelles Wetter: Offenbach (119m)

6-stündlich | Neueste Meldungen
Ortszeit Temperatur Wetter
So, 25.02. 19:00 -2.4° C bedeckt
So, 25.02. 13:00 -1.3° C wolkenlos
So, 25.02. 7:00 -6.3° C wolkenlos
So, 25.02. 1:00 -3.2° C wolkenlos
Sa, 24.02. 19:00 -0.3° C bewölkt
Sa, 24.02. 13:00 3.1° C fast wolkenlos
Sa, 24.02. 7:00 -5.6° C wolkenlos
Sa, 24.02. 1:00 -3.9° C wolkenlos
Ortszeit Temperatur Wetter
So, 25.02. 20:00 -2.9° C bedeckt
So, 25.02. 19:50 -2.9° C bedeckt
So, 25.02. 19:40 -2.8° C bedeckt
So, 25.02. 19:30 -2.7° C bewölkt
So, 25.02. 19:20 -2.7° C bewölkt
So, 25.02. 19:10 -2.5° C bedeckt
So, 25.02. 19:00 -2.4° C bedeckt
So, 25.02. 18:30 -2.4° C wolkig
So, 25.02. 18:00 -2.0° C leicht bewölkt
So, 25.02. 17:30 -1.6° C wolkenlos
So, 25.02. 17:00 -1.2° C wolkenlos
Ortszeit Relative Feuchte Sichtweite
So, 25.02. 19:00 36% 60 km
So, 25.02. 13:00 26% 23 km
So, 25.02. 7:00 56% 21 km
So, 25.02. 1:00 47% 40 km
Sa, 24.02. 19:00 45% 35 km
Sa, 24.02. 13:00 35% 18 km
Sa, 24.02. 7:00 61% 11 km
Sa, 24.02. 1:00 60% 12 km
Ortszeit Relative Feuchte Sichtweite
So, 25.02. 20:00 36% 55 km
So, 25.02. 19:50 36% -
So, 25.02. 19:40 36% -
So, 25.02. 19:30 36% 50 km
So, 25.02. 19:20 36% -
So, 25.02. 19:10 36% -
So, 25.02. 19:00 36% 60 km
So, 25.02. 18:30 36% 55 km
So, 25.02. 18:00 35% 45 km
So, 25.02. 17:30 33% 55 km
So, 25.02. 17:00 32% 45 km
Ortszeit Niederschlagsmenge Niederschlagsart
So, 25.02. 19:00 0.0 l/m2 in 12 Std. -
So, 25.02. 13:00 0.0 l/m2 in 6 Std. -
So, 25.02. 7:00 0.0 l/m2 in 12 Std. -
So, 25.02. 1:00 0.0 l/m2 in 6 Std. -
Sa, 24.02. 19:00 0.0 l/m2 in 12 Std. -
Sa, 24.02. 13:00 0.0 l/m2 in 6 Std. -
Sa, 24.02. 7:00 0.0 l/m2 in 12 Std. -
Sa, 24.02. 1:00 0.0 l/m2 in 6 Std. -
Ortszeit Niederschlagsmenge Niederschlagsart
So, 25.02. 20:00 0.0 l/m2 in 1 Std. -
So, 25.02. 19:50 keine Meldung -
So, 25.02. 19:40 keine Meldung -
So, 25.02. 19:30 0.0 l/m2 in 1 Std. -
So, 25.02. 19:20 keine Meldung -
So, 25.02. 19:10 keine Meldung -
So, 25.02. 19:00 0.0 l/m2 in 1 Std. -
So, 25.02. 18:30 0.0 l/m2 in 1 Std. -
So, 25.02. 18:00 0.0 l/m2 in 1 Std. -
So, 25.02. 17:30 0.0 l/m2 in 1 Std. -
So, 25.02. 17:00 0.0 l/m2 in 1 Std. -
Ortszeit Stärke Spitze Richtung
km/h Bft. km/h Grad Sektor
So, 25.02. 19:00 22 4 40 40° NO
So, 25.02. 13:00 15 3 35 40° NO
So, 25.02. 7:00 14 3 36 50° NO
So, 25.02. 1:00 22 4 40 60° NO
Sa, 24.02. 19:00 18 3 50 40° NO
Sa, 24.02. 13:00 28 4 44 50° NO
Sa, 24.02. 7:00 9 2 26 40° NO
Sa, 24.02. 1:00 13 3 31 30° NO
Ortszeit Stärke Spitze Richtung
km/h Bft. km/h Grad Sektor
So, 25.02. 20:00 14 3 36 40° NO
So, 25.02. 19:50 14 3 - 40° NO
So, 25.02. 19:40 18 3 - 40° NO
So, 25.02. 19:30 20 4 37 40° NO
So, 25.02. 19:20 20 4 - 40° NO
So, 25.02. 19:10 18 3 - 40° NO
So, 25.02. 19:00 22 4 40 40° NO
So, 25.02. 18:30 13 3 39 40° NO
So, 25.02. 18:00 19 3 37 40° NO
So, 25.02. 17:30 18 3 36 30° NO
So, 25.02. 17:00 20 4 39 20° N
Ortszeit Untergrenze Bedeckung Gattung
total tief tief mittel hoch
So, 25.02. 19:00 2700 m 8/8 8/8 - - -
So, 25.02. 13:00 - 0/8 0/8 - - -
So, 25.02. 7:00 - 0/8 0/8 - - -
So, 25.02. 1:00 - 0/8 0/8 - - -
Sa, 24.02. 19:00 5100 m 7/8 7/8 - - -
Sa, 24.02. 13:00 9000 m 1/8 0/8 - - -
Sa, 24.02. 7:00 - 0/8 0/8 - - -
Sa, 24.02. 1:00 - 0/8 0/8 - - -
Ortszeit Bedeckungsgrad in Achtel und Wolkenuntergrenze
So, 25.02. 20:00 8(2400m)
So, 25.02. 19:50 8(2400m)
So, 25.02. 19:40 8(2700m)
So, 25.02. 19:30 7(2400m)
So, 25.02. 19:20 7(2400m)
So, 25.02. 19:10 8(2700m)
So, 25.02. 19:00 8(2700m) 8(4500m) 8(4500m)
So, 25.02. 18:30 3(2400m) 5(3900m) 7(4500m)
So, 25.02. 18:00 1(2400m) 3(4500m)
So, 25.02. 17:30 9 9 9
So, 25.02. 17:00 keine Wolken
Ortszeit Luftdruck NN (hPa) Tendenz (hPa in 3 Std.)
So, 25.02. 19:00 1027 + 0,7
So, 25.02. 13:00 1028 - 1,2
So, 25.02. 7:00 1029 + 1,1
So, 25.02. 1:00 1027 + 1,0
Sa, 24.02. 19:00 1025 + 1,1
Sa, 24.02. 13:00 1023 - 0,7
Sa, 24.02. 7:00 1024 + 1,1
Sa, 24.02. 1:00 1022 + 0,4
Ortszeit Luftdruck NN (hPa) Tendenz (hPa in 3 Std.)
So, 25.02. 20:00 1027 + 1,1
So, 25.02. 19:50 1027 keine Meldung
So, 25.02. 19:40 1027 keine Meldung
So, 25.02. 19:30 1027 + 0,9
So, 25.02. 19:20 1027 keine Meldung
So, 25.02. 19:10 1027 keine Meldung
So, 25.02. 19:00 1027 + 0,7
So, 25.02. 18:30 1027 + 0,5
So, 25.02. 18:00 1027 + 0,1
So, 25.02. 17:30 1026 - 0,5
So, 25.02. 17:00 1026 - 1,0
Ortszeit Schneehöhe (cm)
So, 25.02. 19:00 0
So, 25.02. 13:00 0
So, 25.02. 7:00 0
So, 25.02. 1:00 0
Sa, 24.02. 19:00 0
Sa, 24.02. 13:00 0
Sa, 24.02. 7:00 0
Sa, 24.02. 1:00 0
Ortszeit Schneehöhe (cm)
So, 25.02. 20:00 0
So, 25.02. 19:50 0
So, 25.02. 19:40 0
So, 25.02. 19:30 0
So, 25.02. 19:20 0
So, 25.02. 19:10 0
So, 25.02. 19:00 0
So, 25.02. 18:30 0
So, 25.02. 18:00 0
So, 25.02. 17:30 0
So, 25.02. 17:00 0
Link zu dieser Seite / Seite empfehlen

Das Wetter in ...